Regional Weather Roundup
Issued by NWS Cleveland, OH

Home | Current Version | Previous Version | Graphics & Text | Print | Product List | Glossary On
Versions: 1 2 3 4 5 6 7 8 9 10 11 12 13 14 15 16 17 18 19 20 21 22 23 24 25 26 27 28 29 30 31 32 33 34 35 36 37 38 39 40 41 42 43 44 45 46 47 48 49 50
000
ASUS41 KCLE 191212
RWRCLE
OHIO REGIONAL WEATHER ROUNDUP
NATIONAL WEATHER SERVICE WILMINGTON, OH
800 AM EDT THU APR 19 2018

NOTE: "FAIR" INDICATES FEW OR NO CLOUDS BELOW 12,000 FEET WITH NO
SIGNIFICANT WEATHER AND/OR OBSTRUCTIONS TO VISIBILITY.

OHZ001>008-015>018-024>027-034-035-043-044-191300-
   NORTHWEST OHIO

CITY           SKY/WX    TMP DP  RH WIND       PRES   REMARKS
DEFIANCE       FAIR      33  30  88 NW9       30.06R WCI  25
FINDLAY        CLOUDY    33  29  85 NW8       30.01R WCI  26
TOLEDO EXPRESS CLOUDY    34  32  92 NW9       30.03R WCI  27
TOLEDO EXEC    CLOUDY    34  30  85 NW10      30.03R WCI  26
LIMA           CLOUDY    32  31  96 N12       30.02R WCI  23
$$

OHZ009>014-019>023-028>033-038-089-191300-
   NORTHEAST OHIO

CITY           SKY/WX    TMP DP  RH WIND       PRES   REMARKS
CLE-HOPKINS    CLOUDY    35  30  82 N12       29.95R WCI  27
CLE-LAKEFRONT  FLURRIES  36  28  73 N21       29.93R
CUY CO. ARPT   CLOUDY    36  30  80 N12       29.91R
LORAIN-ELYRIA  PTSUNNY   33  26  75 N13       29.95R WCI  24
ASHTABULA      CLOUDY    33  27  78 N9G17     29.88R WCI  25
AKRON-CANTON   LGT SNOW  33  29  85 N10       29.89R VSB 1   WCI  25
WOOSTER        LGT SNOW  31  31 100 NW9       29.93  VSB 3/4 WCI  23
MANSFIELD      LGT SNOW  31  31 100 NW15      29.94R VSB 3/4 WCI  20
YOUNGSTOWN     LGT SNOW  32  30  92 NW13      29.85R FOG     WCI  22
$$

OHZ042-051>053-060>062-070>072-077>081-191300-
  SOUTHWEST OHIO

CITY           SKY/WX    TMP DP  RH WIND       PRES   REMARKS
CINC-COVINGTON CLOUDY    37  29  72 NW18      30.05R
CINC-LUNKEN    CLOUDY    39  30  70 W14G22    30.07R
HAMILTON       CLOUDY    38  31  76 W12G17    30.06R
DAYTON         CLOUDY    34  34 100 NW13      30.03R WCI  25
WRIGHT-PAT AFB CLOUDY    36  32  87 NW12      30.02R FOG
DAYTON GENERAL CLOUDY    37  31  78 W14G20    30.02R
WILMINGTON     CLOUDY    35  33  92 W12       30.01R WCI  27
$$

OHZ036-037-039>041-045>050-054>059-063>069-073>076-082>088-191300-
  CENTRAL AND SOUTHEAST OHIO

CITY           SKY/WX    TMP DP  RH WIND       PRES   REMARKS
COLUMBUS       LGT SNOW  35  32  88 N12       29.97R FOG     WCI  27
OSU AIRPORT    LGT SNOW  34  31  88 NW9       29.98R FOG     WCI  27
BOLTON FIELD   FLURRIES  34  32  93 N12       29.99R WCI  25
RICKENBACK AFB LGT RAIN  35  34  97 NW9       29.99R WCI  27
NEWARK         CLOUDY    36  32  85 NW9       29.95R
MARION         LGT SNOW  32  30  92 N13       30.00R FOG     WCI  22
LANCASTER      MIX PCPN  36  34  92 NW10      29.97R
ZANESVILLE     NOT AVBL
NEW PHILLY     LGT SNOW  33  32  96 NW6       29.91R FOG     WCI  28
$$




USA.gov is the U.S. government's official web portal to all federal, state and local government web resources and services.